�������l�o���
Date,Time,MP-1(��Sv/h),MP-2(��Sv/h),MP-3(��Sv/h),MP-4(��Sv/h),MP-5(��Sv/h),MP-6(��Sv/h),MP-7(��Sv/h),MP-8(��Sv/h),����,����(m/s),���J
2021/11/17,00:00,0.589,0.881,0.560,1.084,0.759,0.356,0.621,0.583,���k��,8.3,��
2021/11/17,00:10,0.586,0.885,0.559,1.086,0.757,0.357,0.622,0.582,���k��,7.6,��
2021/11/17,00:20,0.587,0.883,0.559,1.086,0.759,0.357,0.623,0.583,���k��,7.2,��
2021/11/17,00:30,0.587,0.883,0.560,1.087,0.759,0.356,0.621,0.582,�k��,6.4,��
2021/11/17,00:40,0.587,0.883,0.560,1.086,0.758,0.358,0.620,0.582,�k��,5.1,��
2021/11/17,00:50,0.586,0.885,0.559,1.084,0.758,0.356,0.622,0.584,�k��,5.9,��
2021/11/17,01:00,0.586,0.883,0.560,1.085,0.758,0.356,0.621,0.583,�k��,6.5,��
2021/11/17,01:10,0.586,0.883,0.560,1.087,0.759,0.356,0.621,0.583,�k��,7.7,��
2021/11/17,01:20,0.588,0.884,0.559,1.087,0.759,0.357,0.620,0.583,�k��,7.2,��
2021/11/17,01:30,0.587,0.882,0.559,1.086,0.759,0.356,0.620,0.583,�k��,7.1,��
2021/11/17,01:40,0.588,0.885,0.559,1.087,0.759,0.355,0.622,0.581,�k��,6.4,��
2021/11/17,01:50,0.588,0.883,0.560,1.087,0.760,0.356,0.621,0.583,�k��,6.4,��
2021/11/17,02:00,0.588,0.885,0.559,1.086,0.759,0.357,0.622,0.582,�k��,6.1,��
2021/11/17,02:10,0.588,0.883,0.560,1.085,0.760,0.357,0.620,0.582,���k��,6.0,��
2021/11/17,02:20,0.586,0.882,0.558,1.087,0.757,0.356,0.621,0.584,�k��,6.7,��
2021/11/17,02:30,0.588,0.883,0.559,1.085,0.759,0.357,0.622,0.583,���k��,6.4,��
2021/11/17,02:40,0.587,0.883,0.559,1.084,0.758,0.356,0.620,0.584,���k��,7.2,��
2021/11/17,02:50,0.589,0.882,0.559,1.084,0.760,0.357,0.619,0.582,���k��,7.7,��
2021/11/17,03:00,0.587,0.883,0.560,1.086,0.760,0.355,0.621,0.581,���k��,7.8,��
2021/11/17,03:10,0.586,0.882,0.559,1.083,0.757,0.355,0.621,0.583,���k��,7.1,��
2021/11/17,03:20,0.587,0.882,0.561,1.086,0.757,0.357,0.619,0.582,�k��,6.6,��
2021/11/17,03:30,0.587,0.882,0.559,1.086,0.756,0.357,0.622,0.583,�k��,7.2,��
2021/11/17,03:40,0.587,0.884,0.559,1.085,0.758,0.357,0.623,0.581,�k��,6.7,��
2021/11/17,03:50,0.587,0.884,0.559,1.086,0.757,0.356,0.620,0.582,�k��,7.7,��
2021/11/17,04:00,0.585,0.881,0.560,1.086,0.758,0.357,0.620,0.583,�k��,6.7,��
2021/11/17,04:10,0.586,0.885,0.560,1.086,0.759,0.356,0.620,0.582,�k��,6.2,��
2021/11/17,04:20,0.588,0.882,0.558,1.086,0.758,0.356,0.621,0.582,�k��,6.6,��
2021/11/17,04:30,0.588,0.882,0.561,1.087,0.759,0.355,0.620,0.582,�k��,5.8,��
2021/11/17,04:40,0.586,0.882,0.560,1.086,0.758,0.356,0.621,0.583,�k��,5.7,��
2021/11/17,04:50,0.587,0.884,0.559,1.087,0.758,0.355,0.620,0.582,�k��,5.1,��
2021/11/17,05:00,0.585,0.881,0.559,1.086,0.759,0.356,0.620,0.583,�k��,4.6,��
2021/11/17,05:10,0.587,0.882,0.560,1.088,0.758,0.356,0.620,0.582,�k��,4.9,��
2021/11/17,05:20,0.585,0.883,0.558,1.086,0.758,0.358,0.622,0.583,�k��,5.6,��
2021/11/17,05:30,0.584,0.882,0.558,1.086,0.759,0.356,0.621,0.582,�k��,6.4,��
2021/11/17,05:40,0.587,0.884,0.559,1.087,0.759,0.356,0.622,0.583,�k��,5.2,��
2021/11/17,05:50,0.586,0.882,0.558,1.085,0.759,0.356,0.621,0.581,�k��,5.3,��
2021/11/17,06:00,0.586,0.883,0.559,1.086,0.758,0.355,0.619,0.583,�k��,5.5,��
2021/11/17,06:10,0.587,0.880,0.560,1.085,0.758,0.357,0.619,0.582,���k��,4.8,��
2021/11/17,06:20,0.586,0.881,0.559,1.085,0.759,0.355,0.619,0.582,���k��,5.1,��
2021/11/17,06:30,0.586,0.881,0.557,1.086,0.758,0.356,0.622,0.584,���k��,4.2,��
2021/11/17,06:40,0.586,0.883,0.560,1.086,0.757,0.355,0.620,0.582,���k��,3.5,��
2021/11/17,06:50,0.585,0.881,0.557,1.085,0.759,0.355,0.620,0.581,��,2.8,��
2021/11/17,07:00,0.586,0.881,0.560,1.085,0.759,0.355,0.619,0.581,���k��,3.9,��
2021/11/17,07:10,0.586,0.882,0.559,1.084,0.759,0.356,0.620,0.583,���k��,5.0,��
2021/11/17,07:20,0.586,0.882,0.560,1.085,0.758,0.355,0.619,0.581,���k��,5.3,��
2021/11/17,07:30,0.586,0.882,0.557,1.085,0.757,0.356,0.620,0.582,���k��,6.4,��
2021/11/17,07:40,0.587,0.882,0.559,1.086,0.757,0.356,0.622,0.582,���k��,6.7,��
2021/11/17,07:50,0.585,0.885,0.560,1.085,0.756,0.355,0.622,0.584,���k��,7.2,��
2021/11/17,08:00,0.585,0.883,0.559,1.085,0.758,0.355,0.621,0.581,���k��,6.9,��
2021/11/17,08:10,0.587,0.884,0.558,1.086,0.757,0.355,0.621,0.582,���k��,7.6,��
2021/11/17,08:20,0.586,0.885,0.559,1.085,0.759,0.357,0.621,0.583,���k��,6.7,��
2021/11/17,08:30,0.588,0.883,0.560,1.088,0.758,0.355,0.623,0.584,���k��,6.3,��
2021/11/17,08:40,0.587,0.882,0.560,1.087,0.759,0.356,0.620,0.583,�k��,6.3,��
2021/11/17,08:50,0.587,0.880,0.562,1.087,0.757,0.356,0.619,0.582,�k��,4.8,��
2021/11/17,09:00,0.586,0.880,0.559,1.086,0.759,0.356,0.620,0.583,���k��,4.6,��
2021/11/17,09:10,0.586,0.879,0.559,1.086,0.758,0.357,0.619,0.584,���k��,3.8,��
2021/11/17,09:20,0.588,0.879,0.561,1.087,0.758,0.357,0.620,0.583,�k��,3.9,��
2021/11/17,09:30,0.588,0.879,0.559,1.087,0.758,0.357,0.620,0.584,���k��,4.4,��
2021/11/17,09:40,0.588,0.880,0.560,1.085,0.758,0.357,0.618,0.585,�k��,3.5,��
2021/11/17,09:50,0.587,0.881,0.559,1.087,0.760,0.357,0.620,0.583,�k��,3.4,��
2021/11/17,10:00,0.588,0.879,0.558,1.087,0.759,0.357,0.620,0.585,�k��,3.3,��
2021/11/17,10:10,0.589,0.879,0.559,1.086,0.760,0.356,0.618,0.583,�k,2.8,��
2021/11/17,10:20,0.588,0.881,0.561,1.087,0.760,0.356,-,0.585,�k�k��,3.4,��
2021/11/17,10:30,0.586,0.878,0.561,1.088,0.760,0.355,-,0.583,�k�k��,3.9,��
2021/11/17,10:40,0.587,0.880,0.560,1.087,0.760,0.356,-,0.583,�k�k��,4.5,��
2021/11/17,10:50,0.588,0.878,0.561,1.086,0.758,0.358,-,0.585,�k�k��,3.8,��
2021/11/17,11:00,0.586,0.881,0.558,1.088,0.759,0.356,-,0.584,�k��,4.5,��
2021/11/17,11:10,0.589,0.879,0.559,1.086,0.758,0.355,-,0.584,�k�k��,4.5,��
2021/11/17,11:20,0.587,0.880,0.559,1.088,0.760,0.354,-,0.584,�k�k��,4.5,��
2021/11/17,11:30,0.588,0.882,0.560,1.088,0.760,0.356,-,0.584,�k�k��,5.0,��
2021/11/17,11:40,0.585,0.882,0.559,1.090,0.758,0.357,-,0.584,�k��,4.3,��
2021/11/17,11:50,0.588,0.880,0.559,1.087,0.759,0.356,-,0.586,�k��,3.9,��
2021/11/17,12:00,0.588,0.882,0.559,1.088,0.759,0.357,-,0.586,�k��,4.6,��
2021/11/17,12:10,0.587,0.882,0.559,1.087,0.759,0.358,-,0.585,�k��,4.3,��
2021/11/17,12:20,0.588,0.882,0.559,1.088,0.759,0.357,0.619,0.584,�k��,4.2,��
2021/11/17,12:30,0.587,0.884,0.558,1.088,0.760,0.357,0.620,0.584,���k��,3.5,��
2021/11/17,12:40,0.588,0.886,0.560,1.090,0.758,0.358,0.618,0.583,���쓌,3.4,��
2021/11/17,12:50,0.588,0.883,0.560,1.087,0.757,0.358,0.620,0.582,��,3.3,��
2021/11/17,13:00,0.588,0.882,0.558,1.086,0.758,0.358,0.619,0.582,��,2.6,��
2021/11/17,13:10,0.589,0.881,0.560,1.088,0.760,0.357,0.619,0.582,��,2.6,��
2021/11/17,13:20,0.589,0.880,0.559,1.087,0.759,0.358,0.619,0.581,��,2.3,��
2021/11/17,13:30,0.589,0.881,0.559,1.090,0.760,0.358,0.619,0.582,��,2.5,��
2021/11/17,13:40,0.588,0.884,0.558,1.090,0.758,0.356,0.619,0.583,��,2.0,��
2021/11/17,13:50,0.588,0.881,0.559,1.088,0.758,0.357,0.620,0.581,���쓌,1.9,��
2021/11/17,14:00,0.588,0.881,0.559,1.088,0.758,0.357,0.620,0.582,���쓌,2.0,��
2021/11/17,14:10,0.588,0.883,0.560,1.089,0.758,0.358,0.621,0.582,�쓌,1.7,��
2021/11/17,14:20,0.588,0.882,0.561,1.088,0.760,0.357,0.620,0.584,�k��,1.7,��
2021/11/17,14:30,0.587,0.883,0.562,1.088,0.760,0.358,0.622,0.581,���k��,2.0,��
2021/11/17,14:40,0.588,0.882,0.562,1.089,0.762,0.357,0.621,0.583,�k��,1.5,��
2021/11/17,14:50,0.588,0.886,0.561,1.090,0.758,0.357,0.623,0.580,��,1.7,��
2021/11/17,15:00,0.588,0.886,0.560,1.089,0.761,0.359,0.620,0.582,���k��,2.2,��
2021/11/17,15:10,0.587,0.889,0.559,1.089,0.760,0.358,0.621,0.582,��,1.7,��
2021/11/17,15:20,0.588,0.890,0.561,1.088,0.762,0.358,0.622,0.583,�k��,2.2,��
2021/11/17,15:30,0.588,0.888,0.560,1.087,0.760,0.359,0.623,0.584,�k��,1.5,��
2021/11/17,15:40,0.588,0.888,0.562,1.090,0.760,0.358,0.622,0.584,�k��,1.5,��
2021/11/17,15:50,0.587,0.888,0.560,1.088,0.761,0.357,0.619,0.585,�k��,1.2,��
2021/11/17,16:00,0.586,0.888,0.560,1.088,0.758,0.357,0.620,0.584,��,1.1,��
2021/11/17,16:10,0.588,0.889,0.560,1.087,0.758,0.357,0.621,0.583,���쓌,1.2,��
2021/11/17,16:20,0.587,0.887,0.561,1.090,0.756,0.358,0.621,0.584,���쓌,1.1,��
2021/11/17,16:30,0.587,0.888,0.561,1.088,0.760,0.357,0.621,0.583,-,CALM,��
2021/11/17,16:40,0.589,0.890,0.560,1.087,0.761,0.357,0.621,0.584,���쐼,0.6,��
2021/11/17,16:50,0.589,0.885,0.561,1.087,0.761,0.355,0.621,0.585,�쐼,0.6,��
2021/11/17,17:00,0.588,0.887,0.560,1.088,0.760,0.358,0.623,0.583,�쐼,1.2,��
2021/11/17,17:10,0.590,0.887,0.563,1.089,0.761,0.358,0.620,0.583,�쐼,1.1,��
2021/11/17,17:20,0.588,0.887,0.562,1.087,0.763,0.357,0.621,0.582,��쐼,1.5,��
2021/11/17,17:30,0.589,0.887,0.560,1.088,0.763,0.356,0.620,0.585,��쐼,1.2,��
2021/11/17,17:40,0.588,0.887,0.561,1.086,0.762,0.357,0.620,0.583,�쐼,2.0,��
2021/11/17,17:50,0.588,0.887,0.561,1.087,0.762,0.358,0.620,0.585,�쐼,2.2,��
2021/11/17,18:00,0.590,0.888,0.562,1.088,0.760,0.358,0.621,0.582,��쐼,2.0,��
2021/11/17,18:10,0.588,0.887,0.560,1.087,0.762,0.357,0.620,0.584,��쐼,1.9,��
2021/11/17,18:20,0.590,0.888,0.560,1.088,0.761,0.356,0.620,0.583,�쐼,1.5,��
2021/11/17,18:30,0.588,0.886,0.561,1.088,0.763,0.358,0.620,0.584,��쐼,0.9,��
2021/11/17,18:40,0.589,0.886,0.562,1.087,0.761,0.358,0.620,0.585,��쐼,2.0,��
2021/11/17,18:50,0.589,0.886,0.561,1.085,0.762,0.357,0.619,0.584,�쐼,0.6,��
2021/11/17,19:00,0.588,0.887,0.561,1.090,0.763,0.357,0.622,0.583,��쐼,1.1,��
2021/11/17,19:10,0.588,0.888,0.561,1.088,0.762,0.358,0.620,0.584,��,1.9,��
2021/11/17,19:20,0.590,0.887,0.560,1.088,0.762,0.356,0.621,0.583,��,1.7,��
2021/11/17,19:30,0.588,0.887,0.561,1.087,0.762,0.356,0.620,0.586,��,2.3,��
2021/11/17,19:40,0.589,0.888,0.560,1.088,0.761,0.357,0.619,0.582,��,2.3,��
2021/11/17,19:50,0.588,0.886,0.560,1.089,0.762,0.357,0.620,0.584,��,2.3,��
2021/11/17,20:00,0.588,0.887,0.561,1.087,0.762,0.357,0.620,0.584,��,2.6,��
2021/11/17,20:10,0.587,0.887,0.562,1.089,0.762,0.356,0.619,0.583,��,3.5,��
2021/11/17,20:20,0.588,0.886,0.561,1.086,0.762,0.358,0.619,0.583,��쐼,3.4,��
2021/11/17,20:30,0.588,0.885,0.560,1.088,0.760,0.358,0.620,0.584,��쐼,4.1,��
2021/11/17,20:40,0.589,0.886,0.561,1.088,0.763,0.356,0.621,0.583,��쐼,4.1,��
2021/11/17,20:50,0.587,0.888,0.561,1.089,0.763,0.356,0.618,0.583,��쐼,3.5,��
2021/11/17,21:00,0.588,0.887,0.560,1.087,0.763,0.355,0.621,0.583,��쐼,3.6,��
2021/11/17,21:10,0.587,0.886,0.560,1.087,0.761,0.357,0.619,0.584,��쐼,3.8,��
2021/11/17,21:20,0.588,0.886,0.559,1.089,0.761,0.357,0.620,0.582,��쐼,4.2,��
2021/11/17,21:30,0.588,0.885,0.560,1.089,0.761,0.356,0.619,0.584,��쐼,3.9,��
2021/11/17,21:40,0.588,0.885,0.561,1.088,0.762,0.356,0.620,0.584,��쐼,3.8,��
2021/11/17,21:50,0.589,0.886,0.561,1.086,0.760,0.357,0.620,0.581,��쐼,3.9,��
2021/11/17,22:00,0.589,0.886,0.561,1.088,0.759,0.356,0.620,0.584,��,3.2,��
2021/11/17,22:10,0.588,0.886,0.560,1.086,0.762,0.357,0.619,0.583,��쐼,2.9,��
2021/11/17,22:20,0.589,0.886,0.560,1.085,0.761,0.357,0.619,0.584,��쐼,3.0,��
2021/11/17,22:30,0.588,0.887,0.562,1.089,0.761,0.356,0.619,0.582,��쐼,3.1,��
2021/11/17,22:40,0.588,0.886,0.560,1.087,0.760,0.356,0.618,0.583,��쐼,3.2,��
2021/11/17,22:50,0.588,0.886,0.561,1.087,0.761,0.357,0.618,0.584,��쐼,3.5,��
2021/11/17,23:00,0.588,0.886,0.561,1.088,0.762,0.356,0.620,0.583,��쐼,3.8,��
2021/11/17,23:10,0.587,0.887,0.560,1.088,0.761,0.356,0.619,0.584,��쐼,3.9,��
2021/11/17,23:20,0.587,0.885,0.559,1.087,0.762,0.357,0.618,0.583,�쐼,3.9,��
2021/11/17,23:30,0.588,0.885,0.561,1.087,0.762,0.355,0.619,0.582,��쐼,4.3,��
2021/11/17,23:40,0.589,0.885,0.561,1.087,0.760,0.356,0.621,0.583,��쐼,3.9,��
2021/11/17,23:50,0.589,0.887,0.562,1.087,0.761,0.357,0.620,0.583,��쐼,3.8,��
